Location: Hohe Wand Kleine Kanzel
(47.8330°N, 16.0170°E)
Time: 16:52:13
(UTC+02:00)

Courier 1B Rocket - Pass Details

Date: 08 August 2021
Orbit: 920 x 1202 km, 28.3° (Epoch: 23 September)

Event Time Altitude Azimuth Distance (km) Brightness Sun altitude
Rises 01:49:00 0° 236° (SW) 3,944 - -25.2°
Reaches altitude 10° 01:53:19 10° 214° (SSW) 2,923 - -25.0°
Maximum altitude 01:56:51 14° 184° (S) 2,557 - -24.9°
Drops below altitude 10° 02:00:17 10° 153° (SSE) 2,815 - -24.7°
Sets 02:04:18 0° 130° (SE) 3,704 - -24.5°
